Weather History for Monte Cimone, Italy

Change the Weather History Date:

Saturday, March 9, 2013

  Actual Average Record
Temperature  
Mean Temperature 34 °F -  
Max Temperature 35 °F 31 °F 35 °F (1998)
Min Temperature 32 °F 24 °F 14 °F (1998)
Degree Days  
Heating Degree Days 32    
Moisture  
Dew Point 32 °F    
Average Humidity 92    
Maximum Humidity 100    
Minimum Humidity 87    
Precipitation  
Precipitation 0.12 in 0.07 in - ()
Sea Level Pressure  
Sea Level Pressure 29.59 in    
Wind  
Wind Speed 23 mph ()    
Max Wind Speed 41 mph    
Max Gust Speed -    
Visibility 0.4 miles    
Events Fog , Snow    
Averages and records for this station are not official NWS values.
T = Trace of Precipitation, MM = Missing Value Source: Averaged Metar Reports

Daily Weather History Graph

Daily Weather History Graph

Search for Another Location

Airport:

Trip Planner

Search our weather history database for the weather conditions in past years. The results will help you decide how hot, cold, wet, or windy it might be!

Date:

Astronomy

Mar. 09, 2013 Rise Set
Actual Time 6:40 AM CET 6:15 PM CET
Civil Twilight 6:11 AM CET 6:44 PM CET
Nautical Twilight 5:38 AM CET 7:18 PM CET
Astronomical Twilight 5:04 AM CET 7:52 PM CET
Moon 4:58 AM CET (3/9) 3:55 PM CET (3/9)
Length of Visible Light 12h 33m
Length of Day
11h 35m
Waning Crescent, 7% of the Moon is Illuminated
Mar 9
Waning Crescent
Mar 11
New
Mar 19
First Quarter
Mar 27
Full
Apr 3
Last Quarter

Hourly Weather History & Observations

Time (CET) Temp. Windchill Dew Point Humidity Pressure Visibility Wind Dir Wind Speed Gust Speed Precip Events Conditions
12:55 AM 33.8 °F 22.2 °F 32.0 °F 93% 29.65 in 0.0 mi WSW 20.7 mph - N/A Fog Fog
1:00 AM 34 °F - 32 °F 90%  in 0 mi WSW 20.7 mph - - Fog Heavy Fog
1:55 AM 35.6 °F 24.0 °F 32.0 °F 87% 29.65 in 0.0 mi WSW 23.0 mph - N/A Fog Fog
2:55 AM 35.6 °F 24.0 °F 33.8 °F 93% 29.65 in 0.0 mi WSW 23.0 mph - N/A Fog Fog
3:55 AM 33.8 °F 23.2 °F 32.0 °F 93% 29.62 in 0.0 mi WSW 17.3 mph - N/A Fog Fog
4:55 AM 33.8 °F 22.8 °F 32.0 °F 93% 29.62 in 0.0 mi WSW 18.4 mph - N/A Fog Fog
5:55 AM 33.8 °F 22.2 °F 32.0 °F 93% 29.59 in 0.0 mi WSW 20.7 mph - N/A Fog Fog
6:55 AM 33.8 °F 20.8 °F 30.2 °F 87% 29.59 in 0.3 mi WSW 26.5 mph - N/A Fog Fog
7:00 AM 33 °F - 31 °F 88%  in 0 mi WSW 26.5 mph - - Fog Heavy Fog
7:55 AM 33.8 °F 23.2 °F 30.2 °F 87% 29.59 in - WSW 17.3 mph - N/A   Clear
8:55 AM 35.6 °F 25.2 °F 32.0 °F 87% 29.59 in - WSW 18.4 mph - N/A   Clear
9:55 AM 33.8 °F 21.0 °F 32.0 °F 93% 29.62 in 6.2 mi WSW 25.3 mph - N/A   Mostly Cloudy
10:55 AM 33.8 °F 20.8 °F 33.8 °F 100% 29.62 in 0.0 mi WSW 26.5 mph - N/A Fog Fog
11:55 AM 33.8 °F 19.6 °F 32.0 °F 93% 29.62 in 0.0 mi WSW 32.2 mph - N/A Fog Fog
12:55 PM 33.8 °F 19.6 °F 32.0 °F 93% 29.62 in 0.0 mi WSW 32.2 mph - N/A Fog Fog
1:00 PM 34 °F - 32 °F 90%  in 0 mi WSW 32.2 mph - - Fog Heavy Fog
1:55 PM 33.8 °F 19.6 °F 32.0 °F 93% 29.59 in - WSW 32.2 mph - N/A Fog Fog
2:55 PM 33.8 °F 19.2 °F 32.0 °F 93% 29.59 in - WSW 34.5 mph - N/A Fog Fog
3:55 PM 32.0 °F 16.7 °F 30.2 °F 93% 29.56 in - WSW 34.5 mph - N/A Fog Fog
4:55 PM 32.0 °F 16.0 °F 30.2 °F 93% 29.53 in - WSW 39.1 mph - N/A Fog Fog
5:55 PM 32.0 °F 15.6 °F 30.2 °F 93% 29.53 in - WSW 41.4 mph - N/A Fog Fog
6:55 PM 32.0 °F 15.8 °F 30.2 °F 93% 29.53 in - WSW 40.3 mph - N/A Fog Fog
7:00 PM 33 °F - 31 °F 89%  in 0 mi WSW 40.3 mph - - Snow Light Snow
7:55 PM 32.0 °F 15.6 °F 30.2 °F 93% 29.53 in - WSW 41.4 mph - N/A Fog Fog
8:55 PM 33.8 °F 18.6 °F 32.0 °F 93% 29.53 in 0.0 mi WSW 38.0 mph - N/A Snow Light Snow
9:55 PM 33.8 °F 20.3 °F 33.8 °F 100% 29.53 in - SW 28.8 mph - N/A Fog Fog
10:55 PM 35.6 °F 25.5 °F 33.8 °F 93% 29.56 in - SW 17.3 mph - N/A Fog Fog
11:55 PM 35.6 °F 26.2 °F 33.8 °F 93% 29.56 in 0.0 mi SW 15.0 mph - N/A Fog Fog